User: anonymous   Login
Location: Unspecified
(0.0000°N, 0.0000°E)
Time: 20:48:01
(UTC+02:00)
Language:

Cosmos 1263 Rocket - Orbit

View from above orbital plane
View from above orbital plane
View from above satellite
View from above satellite

Ground track
Ground track

The orbit data is extracted from the following two-line orbital elements,

1 12389U 81033B   15186.35232317  .01123565 -12835-5  84098-3 0  9995
2 12389 082.8393 084.4905 0034806 136.3318 342.0217 16.13876423769310
Epoch (UTC): 05 July 2015 08:27:20
Eccentricity: 0.0034806
inclination: 82.8393°
perigee height: 213 km
apogee height: 259 km
right ascension of ascending node: 84.4905°
argument of perigee: 136.3318°
revolutions per day: 16.13876423
mean anomaly at epoch: 342.0217°
orbit number at epoch: 76931

The dashed part of the orbit path shows where the satellite is in the earth's shadow,  

DLR